When you browse on this site, cookies collect data to enhance your experience and personalize the content and advertising you see.
Visit our Privacy Policy to learn more. By continuing to use the site, you agree to this use of cookies and data.
  • en Suisse
  • Liste des pays
  • À 7 jours
  • Température de l'eau
  • Carte météo
  • Widgets météo
  • user-avatar
    Se connecter

    Météo par heure à Kitzbühel

    Ce jour, 25 Février, Mardi

    Heure Température Précipitation Vent Pression Humidité
    00:00 +5°C° 0 mm 2 m/s 673 mmHg 75%
    01:00 +5°C° 0 mm 2 m/s 673 mmHg 71%
    02:00 +4°C° 0 mm 2 m/s 672 mmHg 71%
    03:00 +4°C° 0 mm 2 m/s 672 mmHg 72%
    04:00 +4°C° 0 mm 2 m/s 671 mmHg 72%
    05:00 +3°C° 0 mm 2 m/s 671 mmHg 73%
    06:00 +3°C° 0 mm 2 m/s 671 mmHg 75%
    07:00 +3°C° 0 mm 2 m/s 670 mmHg 74%
    08:00 +6°C° 0 mm 1 m/s 670 mmHg 73%
    09:00 +7°C° 0 mm 1 m/s 670 mmHg 72%
    10:00 +9°C° 0 mm 1 m/s 670 mmHg 72%
    11:00 +9°C° 0 mm 1 m/s 670 mmHg 70%
    12:00 +10°C° 0 mm 1 m/s 670 mmHg 68%
    13:00 +10°C° 0 mm 1 m/s 669 mmHg 67%
    14:00 +10°C° 0.1 mm 1 m/s 669 mmHg 71%
    15:00 +9°C° 0.1 mm 1 m/s 668 mmHg 75%
    16:00 +8°C° 0.1 mm 1 m/s 667 mmHg 79%
    17:00 +7°C° 0.1 mm 1 m/s 667 mmHg 82%
    18:00 +6°C° 0.1 mm 0 m/s 667 mmHg 85%
    19:00 +5°C° 0.1 mm 0 m/s 667 mmHg 89%
    20:00 +4°C° 0.6 mm 0 m/s 666 mmHg 90%
    21:00 +5°C° 0.6 mm 1 m/s 666 mmHg 92%
    22:00 +4°C° 0.6 mm 1 m/s 665 mmHg 94%
    23:00 +4°C° 0.9 mm 1 m/s 665 mmHg 95%

    Demain, 26 Février, Mercredi

    Heure Température Précipitation Vent Pression Humidité
    00:00 +4°C° 0.9 mm 1 m/s 664 mmHg 95%
    01:00 +3°C° 0.9 mm 1 m/s 664 mmHg 96%
    02:00 +3°C° 1.8 mm 1 m/s 663 mmHg 96%
    03:00 +2°C° 1.8 mm 1 m/s 662 mmHg 96%
    04:00 +2°C° 1.8 mm 1 m/s 662 mmHg 97%
    05:00 +1°C° 2.1 mm 2 m/s 662 mmHg 97%
    06:00 -1°C° 2.1 mm 2 m/s 661 mmHg 96%
    07:00 -1°C° 2.1 mm 2 m/s 661 mmHg 96%
    08:00 -2°C° 1.3 mm 2 m/s 661 mmHg 91%
    09:00 -2°C° 1.3 mm 2 m/s 661 mmHg 85%
    10:00 -2°C° 1.3 mm 2 m/s 661 mmHg 80%
    11:00 -2°C° 0.3 mm 2 m/s 662 mmHg 77%
    12:00 -1°C° 0.3 mm 3 m/s 662 mmHg 75%
    13:00 -1°C° 0.3 mm 3 m/s 662 mmHg 72%
    14:00 -1°C° 0.5 mm 3 m/s 662 mmHg 74%
    15:00 -3°C° 0.5 mm 4 m/s 662 mmHg 77%
    16:00 -4°C° 0.5 mm 4 m/s 662 mmHg 79%
    17:00 -5°C° 0.3 mm 3 m/s 663 mmHg 83%
    18:00 -5°C° 0.3 mm 2 m/s 664 mmHg 87%
    19:00 -5°C° 0.3 mm 2 m/s 664 mmHg 90%
    20:00 -5°C° 0.9 mm 2 m/s 665 mmHg 92%
    21:00 -5°C° 0.9 mm 2 m/s 666 mmHg 94%
    22:00 -5°C° 0.9 mm 2 m/s 666 mmHg 96%
    23:00 -5°C° 0.9 mm 2 m/s 667 mmHg 96%

    Après-demain, 27 Février, Jeudi

    Heure Température Précipitation Vent Pression Humidité
    00:00 -5°C° 0.9 mm 2 m/s 667 mmHg 96%
    01:00 -5°C° 0.9 mm 2 m/s 668 mmHg 96%
    02:00 -5°C° 0.4 mm 2 m/s 668 mmHg 96%
    03:00 -5°C° 0.4 mm 2 m/s 668 mmHg 96%
    04:00 -5°C° 0.4 mm 2 m/s 669 mmHg 96%
    05:00 -4°C° 0.2 mm 1 m/s 669 mmHg 95%
    06:00 -4°C° 0.2 mm 1 m/s 669 mmHg 93%
    07:00 -6°C° 0.2 mm 1 m/s 670 mmHg 92%
    08:00 -3°C° 0 mm 1 m/s 670 mmHg 86%
    09:00 -2°C° 0 mm 1 m/s 670 mmHg 79%
    10:00 0°C° 0 mm 1 m/s 670 mmHg 72%
    11:00 -2°C° 0 mm 2 m/s 669 mmHg 69%
    12:00 -1°C° 0 mm 2 m/s 669 mmHg 66%
    13:00 +1°C° 0 mm 2 m/s 668 mmHg 63%
    14:00 +1°C° 0 mm 2 m/s 667 mmHg 66%
    15:00 0°C° 0 mm 3 m/s 665 mmHg 69%
    16:00 0°C° 0 mm 3 m/s 664 mmHg 72%
    17:00 -2°C° 0.6 mm 4 m/s 664 mmHg 77%
    18:00 -3°C° 0.6 mm 4 m/s 663 mmHg 81%
    19:00 -4°C° 0.6 mm 4 m/s 663 mmHg 86%
    20:00 -4°C° 0.1 mm 4 m/s 662 mmHg 84%
    21:00 -5°C° 0.1 mm 4 m/s 662 mmHg 81%
    22:00 -5°C° 0.1 mm 4 m/s 662 mmHg 79%
    23:00 -5°C° 0.1 mm 4 m/s 662 mmHg 81%

    28 Février, Vendredi

    Heure Température Précipitation Vent Pression Humidité
    00:00 -5°C° 0.1 mm 4 m/s 663 mmHg 83%
    01:00 -7°C° 0.1 mm 4 m/s 663 mmHg 84%
    02:00 -6°C° 1 mm 5 m/s 664 mmHg 88%
    03:00 -6°C° 1 mm 5 m/s 665 mmHg 91%
    04:00 -6°C° 1 mm 6 m/s 666 mmHg 94%
    05:00 -6°C° 1.2 mm 6 m/s 667 mmHg 94%
    06:00 -6°C° 1.2 mm 6 m/s 669 mmHg 93%
    07:00 -8°C° 1.2 mm 6 m/s 670 mmHg 93%
    08:00 -6°C° 0.5 mm 6 m/s 671 mmHg 89%
    09:00 -6°C° 0.5 mm 6 m/s 672 mmHg 86%
    10:00 -6°C° 0.5 mm 6 m/s 673 mmHg 82%
    11:00 -5°C° 0.1 mm 5 m/s 673 mmHg 77%
    12:00 -3°C° 0.1 mm 4 m/s 674 mmHg 71%
    13:00 -2°C° 0.1 mm 4 m/s 674 mmHg 65%
    14:00 -1°C° 0 mm 3 m/s 674 mmHg 66%
    15:00 -1°C° 0 mm 2 m/s 674 mmHg 67%
    16:00 +1°C° 0 mm 1 m/s 674 mmHg 68%
    17:00 0°C° 0 mm 1 m/s 674 mmHg 70%
    18:00 -2°C° 0 mm 1 m/s 674 mmHg 73%
    19:00 -4°C° 0 mm 1 m/s 674 mmHg 75%
    20:00 -6°C° 0 mm 2 m/s 674 mmHg 73%
    21:00 -7°C° 0 mm 2 m/s 674 mmHg 70%
    22:00 -7°C° 0 mm 2 m/s 674 mmHg 67%
    23:00 -6°C° 0 mm 2 m/s 674 mmHg 67%

    29 Février, Samedi

    Heure Température Précipitation Vent Pression Humidité
    00:00 -6°C° 0 mm 2 m/s 674 mmHg 68%
    01:00 -5°C° 0 mm 2 m/s 674 mmHg 68%
    02:00 -5°C° 0 mm 2 m/s 674 mmHg 69%
    03:00 -4°C° 0 mm 2 m/s 674 mmHg 70%
    04:00 -4°C° 0 mm 2 m/s 673 mmHg 71%
    05:00 -3°C° 0 mm 2 m/s 673 mmHg 73%
    06:00 -3°C° 0 mm 2 m/s 673 mmHg 75%
    07:00 -2°C° 0 mm 2 m/s 673 mmHg 77%
    08:00 -1°C° 0 mm 2 m/s 673 mmHg 79%
    09:00 +2°C° 0 mm 2 m/s 672 mmHg 82%
    10:00 +3°C° 0 mm 2 m/s 672 mmHg 84%
    11:00 +4°C° 0 mm 2 m/s 671 mmHg 85%
    12:00 +5°C° 0 mm 2 m/s 671 mmHg 87%
    13:00 +5°C° 0 mm 2 m/s 670 mmHg 88%
    14:00 +4°C° 0 mm 3 m/s 670 mmHg 88%
    15:00 +3°C° 0 mm 3 m/s 669 mmHg 88%
    16:00 +3°C° 0 mm 3 m/s 668 mmHg 87%
    17:00 +2°C° 0 mm 3 m/s 668 mmHg 86%
    18:00 +1°C° 0 mm 3 m/s 668 mmHg 84%
    19:00 -1°C° 0 mm 3 m/s 668 mmHg 82%
    20:00 -1°C° 0 mm 3 m/s 668 mmHg 82%
    21:00 -2°C° 0 mm 3 m/s 668 mmHg 81%
    22:00 -4°C° 0 mm 3 m/s 668 mmHg 81%
    23:00 -3°C° 0.1 mm 2 m/s 669 mmHg 83%

    1 Mars, Dimanche

    Heure Température Précipitation Vent Pression Humidité
    00:00 -1°C° 0.1 mm 1 m/s 669 mmHg 85%
    01:00 -1°C° 0.1 mm 1 m/s 669 mmHg 88%
    02:00 -1°C° 0.2 mm 1 m/s 669 mmHg 90%
    03:00 -1°C° 0.2 mm 1 m/s 669 mmHg 92%
    04:00 -1°C° 0.2 mm 1 m/s 669 mmHg 94%
    05:00 -1°C° 0.2 mm 1 m/s 670 mmHg 94%
    06:00 -1°C° 0.2 mm 1 m/s 670 mmHg 94%
    07:00 -1°C° 0.2 mm 1 m/s 670 mmHg 94%
    08:00 0°C° 0.2 mm 1 m/s 670 mmHg 92%
    09:00 +1°C° 0.2 mm 1 m/s 670 mmHg 90%
    10:00 +1°C° 0.2 mm 1 m/s 670 mmHg 89%
    11:00 +2°C° 0.3 mm 1 m/s 670 mmHg 88%
    12:00 +2°C° 0.3 mm 1 m/s 670 mmHg 87%
    13:00 +2°C° 0.3 mm 1 m/s 670 mmHg 86%
    14:00 +2°C° 0.2 mm 1 m/s 669 mmHg 87%
    15:00 +2°C° 0.2 mm 1 m/s 669 mmHg 87%
    16:00 +2°C° 0.2 mm 1 m/s 669 mmHg 87%
    17:00 0°C° 0 mm 1 m/s 668 mmHg 87%
    18:00 -1°C° 0 mm 1 m/s 668 mmHg 88%
    19:00 -5°C° 0 mm 2 m/s 668 mmHg 88%
    20:00 -5°C° 0 mm 2 m/s 668 mmHg 86%
    21:00 -5°C° 0 mm 2 m/s 668 mmHg 83%
    22:00 -5°C° 0 mm 2 m/s 668 mmHg 81%
    23:00 -4°C° 0 mm 2 m/s 668 mmHg 80%
    Voir plus